EW4609 Weather Reports


Display with metric or nautical units.
time (UTC)temp
F
wind
direction
speed
MPH
gust
MPH
rain 1hr
in
rain 24hr
in
rain mn
in
humidity
%
barometer
mb
20260505224550 86 321 0.0 0.0 0.00 0.00 0.00 41 1003.7
20260505223053 87 313 0.0 0.0 0.00 0.00 0.00 41 1003.6
20260505221546 88 309 0.0 0.0 0.00 0.00 0.00 40 1003.3
20260505220040 90 258 0.0 0.0 0.00 0.00 0.00 38 1003.0
20260505214548 90 260 0.0 0.0 0.00 0.00 0.00 39 1003.2
20260505213043 90 255 0.0 0.0 0.00 0.00 0.00 38 1003.2
20260505211521 90 259 0.0 0.0 0.00 0.00 0.00 38 1003.4
20260505210006 89 252 0.0 0.0 0.00 0.00 0.00 37 1003.6
20260505204600 89 254 0.0 0.0 0.00 0.00 0.00 36 1003.8
20260505203056 89 262 0.0 0.0 0.00 0.00 0.00 35 1004.0
20260505201557 89 261 0.0 0.0 0.00 0.00 0.00 33 1004.2
20260505200046 88 254 0.0 0.0 0.00 0.00 0.00 28 1004.4
20260505194543 87 252 0.0 0.0 0.00 0.00 0.00 24 1004.3
20260505193045 86 254 0.0 0.0 0.00 0.00 0.00 20 1004.5
20260505191538 85 251 0.0 0.0 0.00 0.00 0.00 14 1004.4
20260505190024 84 267 0.0 0.0 0.00 0.00 0.00 8 1004.5
20260505184507 83 263 0.0 0.0 0.00 0.00 0.00 4 1004.7
20260505183102 82 250 0.0 0.0 0.00 0.00 0.00 3 1004.8
20260505181541 82 243 0.0 0.0 0.00 0.00 0.00 1 1004.7
20260505180041 81 250 0.0 0.0 0.00 0.00 0.00 1 1004.9
20260505174520 81 225 0.0 0.0 0.00 0.00 0.00 1 1004.8
20260505173010 81 292 0.0 0.0 0.00 0.00 0.00 1 1004.9
20260505171551 80 253 0.0 0.0 0.00 0.00 0.00 1 1005.0
20260505170044 80 265 0.0 0.0 0.00 0.00 0.00 1 1004.9
20260505164533 79 236 0.0 0.0 0.00 0.00 0.00 1 1004.9
20260505163023 78 252 0.0 0.0 0.00 0.00 0.00 1 1004.9
20260505161501 78 255 0.0 0.0 0.00 0.00 0.00 1 1004.9
20260505153033 75 255 0.0 0.0 0.00 0.00 0.00 1 1004.6
20260505151510 74 265 0.0 0.0 0.00 0.00 0.00 1 1004.8
20260505140117 72 264 0.0 0.0 0.00 0.00 0.00 1 1004.8
20260505124533 70 259 0.0 0.0 0.00 0.00 0.00 1 1004.3
20260505123046 70 217 0.0 0.0 0.00 0.00 0.00 1 1004.1
20260505121512 69 272 0.0 0.0 0.00 0.00 0.00 1 1003.9
20260505120010 69 240 0.0 0.0 0.00 0.00 0.00 1 1003.6
20260505114508 69 228 0.0 0.0 0.00 0.00 0.00 1 1003.8
20260505113009 69 263 0.0 0.0 0.00 0.00 0.00 1 1003.5
20260505111515 69 227 0.0 0.0 0.00 0.00 0.00 1 1003.5
20260505101537 70 253 0.0 0.0 0.00 0.00 0.00 1 1003.8
20260505100031 70 270 0.0 0.0 0.00 0.00 0.00 1 1003.7
20260505094506 70 257 0.0 0.0 0.00 0.00 0.00 1 1003.6
20260505093002 70 258 0.0 0.0 0.00 0.00 0.00 1 1003.9
20260505091546 70 263 0.0 0.0 0.00 0.00 0.00 1 1004.0
20260505090048 70 294 0.0 0.0 0.00 0.00 0.00 1 1004.2
20260505084517 70 261 0.0 0.0 0.00 0.00 0.00 1 1004.1
20260505083011 70 237 0.0 0.0 0.00 0.00 0.00 1 1004.2
20260505081550 71 271 0.0 0.0 0.00 0.00 0.00 1 1004.2
20260505080051 71 238 0.0 0.0 0.00 0.00 0.00 1 1004.1
20260505074522 71 256 0.0 0.0 0.00 0.00 0.00 1 1004.3
20260505073019 71 250 0.0 0.0 0.00 0.00 0.00 1 1004.7
20260505071558 72 275 0.0 0.0 0.00 0.00 0.00 1 1005.0
20260505070055 72 261 0.0 0.0 0.00 0.00 0.00 1 1005.3
20260505064530 72 274 0.0 0.0 0.00 0.00 0.00 1 1005.5
20260505063026 73 253 0.0 0.0 0.00 0.00 0.00 1 1005.6
20260505061509 73 225 0.0 0.0 0.00 0.00 0.00 1 1005.6
20260505060100 74 237 0.0 0.0 0.00 0.00 0.00 1 1005.7
20260505054538 74 261 0.0 0.0 0.00 0.00 0.00 1 1005.5
20260505053035 74 221 0.0 0.0 0.00 0.00 0.00 1 1005.5
20260505051514 74 243 0.0 0.0 0.00 0.00 0.00 1 1005.6
20260505041538 75 184 0.0 0.0 0.00 0.00 0.00 1 1005.9
20260505040017 75 232 0.0 0.0 0.00 0.00 0.00 2 1006.0
20260505034555 75 196 0.0 0.0 0.00 0.00 0.00 3 1006.0
20260505033052 75 131 0.0 0.0 0.00 0.00 0.00 5 1005.9
20260505031543 75 163 0.0 0.0 0.00 0.00 0.00 7 1005.8
20260505030037 75 169 0.0 0.0 0.00 0.00 0.00 8 1006.0
20260505024517 75 220 0.0 0.0 0.00 0.00 0.00 10 1006.0
20260505023013 76 143 0.0 0.0 0.00 0.00 0.00 13 1005.9
20260505021553 76 126 0.0 0.0 0.00 0.00 0.00 15 1005.8
20260505020052 76 155 0.0 0.0 0.00 0.00 0.00 16 1005.8
20260505014542 76 130 0.0 0.0 0.00 0.00 0.00 18 1005.7
20260505013031 76 209 0.0 0.0 0.00 0.00 0.00 20 1005.8
20260505011521 77 153 0.0 0.0 0.00 0.00 0.00 22 1005.8
20260505010011 77 187 0.0 0.0 0.00 0.00 0.00 24 1005.8
20260505004553 77 209 0.0 0.0 0.00 0.00 0.00 26 1005.8
20260505003050 78 222 0.0 0.0 0.00 0.00 0.00 28 1005.9
20260505001532 78 193 0.0 0.0 0.00 0.00 0.00 29 1005.9
20260505000034 79 253 0.0 0.0 0.00 0.00 0.00 29 1006.1
20260504234513 78 229 0.0 0.0 0.00 0.00 0.00 30 1006.1
20260504233008 79 211 0.0 0.0 0.00 0.00 0.00 31 1006.4
20260504231503 79 182 0.0 0.0 0.00 0.00 0.00 32 1006.2
20260504230104 80 201 0.0 0.0 0.00 0.00 0.00 33 1006.2